x

Sentry Shoal (46131) Wave Buoy

4:00 - Wed 4th Mar 2015 All times are PST. -8 hours from GMT.

  • Sig Wave height 0.3ft
  • Peak Period 2s
  • Wind
    4mph, 7mph gusts
  • Sea Temp 47°f
  • Aire Temp 42°f
  • Sea Pressure 1025.5mb
  • Sentry Shoal
  • Sentry Shoal

More Historic Weather Station data

Upgrade to MSW Pro to gain access to the past 30 days of data for over 8000 Wavebouys and Weather Stations around the globe.

Join Pro

Comparision Forecast

View Surf forecast
   
mié 03/04 4:00 0.3ft 2s 4 7 mph 1025.5mb 47f 42f
3:00 0.3ft 2s 4
mph
1025.5mb 47f 42f
2:00 0.3ft 2s 4
mph
1025.6mb 47f 43f
1:00  -  8s 4 7 mph 1025.6mb 47f 43f
12:00 0.3ft 7s 2
mph
1025.1mb 47f 44f
mar 03/03 11:00 0.3ft 2s 2 4 mph 1024.8mb 47f 44f
10:00 0.3ft 3s 4 7 mph 1024.6mb 47f 44f
9:00 0.3ft 3s 2 4 mph 1024.4mb 47f 44f
8:00 0.3ft 4s 2 4 mph 1024mb 47f 46f
7:00 0.3ft 3s 4
mph
1024mb 47f 46f
6:00 0.3ft 3s 2 4 mph 1023.7mb 47f 45f
5:00 0.3ft 3s 2
mph
1023.8mb 48f 47f
3:00 0.3ft 3s 2
mph
1024.4mb 48f 47f
2:00 0.7ft 3s 2 4 mph 1024.8mb 48f 46f
1:00 0.7ft 3s 2 4 mph 1025.2mb 48f 46f
12:00 0.7ft 3s 4 7 mph 1025.4mb 47f 45f
11:00 0.7ft 2s 9 11 mph 1025.5mb 47f 45f
10:00 0.7ft 2s 9 11 mph 1025.7mb 47f 44f
9:00 0.7ft 2s 9
mph
1025.6mb 47f 44f
8:00 0.7ft 2s 9 11 mph 1025.2mb 47f 44f
7:00 0.3ft 2s 2 7 mph 1025mb 47f 44f
6:00 0.3ft 2s 9 11 mph 1024.7mb 47f 42f
5:00 0.3ft 2s 9 11 mph 1024.1mb 47f 42f
4:00 0.7ft 2s 7 9 mph 1024.1mb 47f 43f
3:00 0.7ft 2s 9 11 mph 1024.1mb 47f 43f
2:00 0.7ft 2s 11 13 mph 1024mb 47f 43f
1:00 0.7ft 2s 11 13 mph 1023.5mb 47f 44f
12:00 1ft 3s 11 13 mph 1023.2mb 47f 44f
lun 03/02 11:00 1ft 3s 11 13 mph 1022.8mb 47f 46f
10:00 0.7ft 2s 13 16 mph 1022.4mb 47f 47f
9:00 0.7ft 2s 11 16 mph 1021.8mb 47f 48f
8:00 0.7ft 2s 11
mph
1021mb 48f 49f
7:00 0.7ft 3s 11 13 mph 1020.4mb 47f 49f
6:00 0.7ft 3s 13
mph
1019.7mb 47f 50f
5:00 1.3ft 3s 13 16 mph 1019.3mb 47f 51f
4:00 1ft 3s 13 18 mph 1019mb 48f 51f
3:00 1ft 3s 16 18 mph 1019mb 48f 51f
2:00 0.3ft 2s 4 9 mph 1019.5mb 48f 51f
1:00 0.3ft 2s 7 9 mph 1019.8mb 48f 48f
12:00 0.3ft 2s 9 11 mph 1020mb 47f 46f
11:00 0.3ft 2s 9
mph
1020mb 47f 44f
10:00 0.7ft 2s 9 11 mph 1020.4mb 47f 43f
9:00 0.7ft 2s 11 13 mph 1020.2mb 47f 42f
8:00 0.7ft 2s 11 13 mph 1019.8mb 47f 42f
7:00 0.7ft 2s 9 11 mph 1019.3mb 47f 42f
6:00 0.7ft 2s 11 13 mph 1018.9mb 47f 42f
5:00 0.7ft 2s 11 13 mph 1018.7mb 47f 42f
4:00 0.3ft 2s 13 16 mph 1018.5mb 47f 42f
3:00 0.7ft 2s 13 16 mph 1018.4mb 47f 42f
2:00 0.3ft 2s 11 13 mph 1018.6mb 47f 42f
1:00 0.3ft 2s 9 11 mph 1018.4mb 47f 43f
12:00 0.3ft 2s 7 9 mph 1018.5mb 47f 42f
dom 03/01 11:00 0.3ft 2s 11 13 mph 1018.5mb 47f 43f
10:00 0.3ft 7s 9
mph
1018.1mb 47f 43f
9:00  -  8s 7 9 mph 1018.1mb 47f 42f
8:00  -  8s 7 9 mph 1018.1mb 47f 41f
7:00 0.3ft 8s 2 4 mph 1018.1mb 46f 42f
6:00 0.3ft 8s 2
mph
1017.9mb 47f 42f
5:00 0.3ft 8s  -  2 mph 1018.1mb 47f 42f
4:00 0.3ft 8s 2 4 mph 1018.8mb 47f 42f
3:00 0.3ft 2s 4 7 mph 1019.8mb 47f 43f
2:00  -  7s 9 11 mph 1020.6mb 47f 44f
1:00  -  4s 4 7 mph 1021.1mb 48f 43f
12:00 0.3ft 3s 2 4 mph 1022mb 47f 43f
11:00  -  4s 2 4 mph 1022.6mb 47f 43f
10:00 0.3ft 2s 2 4 mph 1023.1mb 47f 43f
9:00 0.3ft 2s 7 9 mph 1023.4mb 47f 42f
8:00 0.3ft 2s 7 9 mph 1023.6mb 47f 42f
7:00 0.3ft 2s 7 9 mph 1023.4mb 47f 42f
6:00 0.7ft 2s 9 11 mph 1023.8mb 47f 42f
5:00 0.7ft 2s 9 13 mph 1023.9mb 47f 42f
4:00 0.3ft 2s 9
mph
1023.7mb 47f 43f
3:00 0.3ft 8s 9
mph
1023.7mb 47f 44f
2:00 0.3ft 8s 7 9 mph 1024.1mb 47f 44f
1:00 0.3ft 8s 7
mph
1024.4mb 47f 44f
12:00  -  7s 4
mph
1024.6mb 47f 45f
sáb 02/28 11:00  -  7s 4 7 mph 1024.3mb 47f 45f
10:00  -  7s 2 4 mph 1024.4mb 47f 45f
9:00  -  7s 4
mph
1024mb 47f 46f
8:00  -  7s 2 4 mph 1023.5mb 47f 46f
7:00 0.3ft 3s 2
mph
1023.3mb 47f 46f
6:00  -  6s 4
mph
1023.2mb 48f 46f
5:00 0.3ft 7s 2 4 mph 1023.3mb 49f 46f
4:00 0.3ft 8s 4
mph
1023.4mb 48f 47f
2:00  -  4s 4
mph
1023.3mb 49f 47f